5NBMX DNMM-DBBK

Flight info

Callsign 5NBMX
Flight time N/A
Altitude 1500
Route DCT TENTU DCT 11N003E DCT
Aircraft S76/L-VGD/C

Departure

Time N/A
Airport Murtala Muhammed International Airport (DNMM)

Arrival

Time 2026-05-06 17:44
Airport Kandi Airport (DBBK)
Time Latitude Longitude Altitude Speed Heading
2026-05-06 17:39 10.71293 2.93191 1766 ft 157 kts 359°
2026-05-06 17:39 10.72389 2.93240 1766 ft 159 kts 358°
2026-05-06 17:39 10.73505 2.93288 1768 ft 161 kts 358°
2026-05-06 17:39 10.74615 2.93334 1768 ft 160 kts 358°
2026-05-06 17:40 10.75711 2.93380 1768 ft 159 kts 358°
2026-05-06 17:40 10.76826 2.93429 1766 ft 162 kts 358°
2026-05-06 17:40 10.77941 2.93473 1777 ft 159 kts 357°
2026-05-06 17:40 10.79044 2.93517 1771 ft 159 kts 358°
2026-05-06 17:41 10.80144 2.93563 1771 ft 158 kts 358°
2026-05-06 17:41 10.81242 2.93608 1774 ft 157 kts 358°
2026-05-06 17:41 10.83755 2.93716 1765 ft 160 kts 357°
2026-05-06 17:41 10.88192 2.93894 1776 ft 154 kts 358°
2026-05-06 17:42 10.92446 2.94077 1762 ft 152 kts 358°
2026-05-06 17:42 10.96707 2.94254 1774 ft 154 kts 358°
2026-05-06 17:42 11.00986 2.94430 1768 ft 153 kts 358°
2026-05-06 17:42 11.05251 2.94612 1762 ft 153 kts 358°
2026-05-06 17:43 11.08100 2.94730 1771 ft 154 kts 358°
2026-05-06 17:43 11.10966 2.94851 1764 ft 153 kts 358°
2026-05-06 17:43 11.12025 2.94874 1603 ft 152 kts 354°
2026-05-06 17:43 11.13046 2.94833 1463 ft 134 kts 349°
2026-05-06 17:44 11.13872 2.94644 1285 ft 112 kts 333°
2026-05-06 17:44 11.14412 2.94247 1252 ft 83 kts 293°
2026-05-06 17:44 11.14291 2.94026 1159 ft 48 kts 162°
2026-05-06 17:44 11.14269 2.94311 1186 ft 42 kts 47°
2026-05-06 17:45 11.14460 2.94233 1136 ft 31 kts 282°
2026-05-06 17:45 11.14366 2.94133 1075 ft 19 kts 184°
2026-05-06 17:45 11.14254 2.94186 994 ft 15 kts 164°
2026-05-06 17:45 11.14219 2.94202 979 ft 1 kts 153°
2026-05-06 17:46 11.14220 2.94200 964 ft 0 kts 154°